SCP
-0 -0 -0 0 0 0 0 0 0 0 0 0 0 0 0 -0 -0 0 0 -0 0 -0 0 0 0 0 0 0 0 0 0 0 -0 0 -0 0 0 0 0 0 0 0 0 0 0 0 0
-0 -0 -0 -0 0 0 0 0 0 0 0 0 0 0 0 -0 -0 -0 0 0 0 0 0 0 0 0 0 0 0 0 0 0 0 0 0 -0 0 0 0 0 0 0 0 0 0 0 0
-0 -0 -0 -0 -0 -0 0 0 0 0 0 0 0 0 0 0 0 -0 -0 0 0 0 0 0 0 0 0 0 0 0 0 0 0 0 0 0 0 0 0 0 0 0 0 0 0 0 0
-0 -0 -0 -0 -0 0 0 0 0 0 0 0 0 0 0 0 0 -0 -0 0 0 0 0 0 0 0 0 0 0 0 0 0 0 0 0 0 0 0 0 0 0 -0 -0 0 0 0 0
-0 -0 -0 -0 0 0 0 0 0 0 0 0 0 0 0 0 0 0 0 0 0 0 0 0 0 0 0 0 0 0 0 0 0 0 0 0 0 0 0 0 0 -0 -0 -0 0 0 0
-0 -0 -0 -0 -0 -0 0 0 0 0 0 0 0 0 0 0 0 0 0 0 0 0 0 0 0 0 0 0 0 0 0 0 0 0 0 0 0 0 0 0 0 0 0 0 -0 -0 0
-0 -0 -0 -0 -0 -0 0 0 0 0 0 0 0 0 0 0 0 0 0 0 0 0 0 0 0 0 0 0 0 0 0 0 0 0 0 0 0 0 0 0 0 0 0 0 0 0 0
-0 -0 -0 -0 -0 -0 0 0 0 0 0 0 0 0 0 0 0 0 0 0 0 0 0 0 0 0 0 0 0 0 0 0 0 0 0 0 0 0 0 0 0 0 0 -0 0 -0 0
-0 -0 -0 -0 -0 0 0 0 0 0 0 0 0 0 0 0 0 0 0 0 0 0 0 0 0 0 0 0 0 0 0 0 0 0 0 0 0 0 0 0 0 0 0 0 0 0 0
-0 -0 -0 -0 0 0 0 0 0 0 0 0 0 0 0 0 0 0 0 0 0 0 0 0 0 0 0 0 0 0 0 0 0 0 0 0 0 0 0 0 0 0 0 0 0 0 -0
0 -0 -0 -0 -0 0 0 0 0 0 0 0 0 0 0 0 0 0 0 0 0 0 0 0 0 0 0 0 0 0 0 0 0 0 0 0 0 0 0 0 0 0 0 0 0 0 0
0 0 -0 -0 0 0 0 0 0 0 0 0 0 0 0 0 0 0 0 0 0 0 0 0 0 0 0 0 0 0 0 0 0 0 0 0 0 0 0 0 0 0 0 0 0 0 0
0 0 0 0 0 0 0 0 0 0 0 0 0 0 0 0 0 0 0 0 0 0 0 0 0 0 0 0 0 0 0 0 0 0 0 0 -0 -0 0 -0 0 0 0 0 0 0 0
0 0 0 0 0 0 0 0 0 0 0 0 0 0 0 0 0 0 0 0 0 0 0 0 0 0 0 0 0 0 0 0 0 0 0 0 0 0 0 0 0 -0 0 0 0 0 0
0 0 0 0 0 0 0 0 0 0 0 0 0 0 0 0 0 0 0 0 0 0 0 0 0 0 0 0 0 0 0 0 0 0 0 0 0 -0 -0 -0 -0 0 0 0 0 0 0
0 0 0 0 0 0 0 0 0 0 0 0 0 0 0 0 0 0 0 0 0 0 0 0 0 0 0 0 0 0 0 0 0 0 0 0 -0 0 -0 -0 -0 0 -0 0 0 0 0
0 0 0 0 0 0 0 0 0 0 0 -0 0 -0 0 0 0 0 0 0 0 0 0 0 0 0 0 0 0 0 0 0 0 0 0 0 0 0 0 0 0 0 0 0 0 0 0
0 0 0 0 0 0 0 0 0 0 0 0 -0 -0 0 0 0 0 0 0 0 0 0 0 0 0 0 0 0 0 0 0 0 0 0 0 0 -0 -0 0 -0 0 0 0 0 0 0
0 0 0 0 0 0 0 0 0 0 0 0 -0 0 0 0 0 0 0 0 0 0 0 0 0 0 0 0 0 0 0 0 0 0 0 0 0 0 0 0 0 0 0 0 0 0 0
0 0 0 0 0 0 0 0 0 0 0 0 0 -0 0 0 0 0 0 0 0 0 0 0 0 0 0 0 0 0 0 0 0 0 -0 0 0 0 0 0 0 0 0 0 0 0 -0
0 0 0 0 0 0 0 0 0 0 0 0 0 0 0 0 0 0 0 0 0 0 0 0 0 0 0 0 -0 0 0 0 0 0 0 0 0 0 0 -0 -0 0 -0 -0 -0 -0 -0
0 0 0 0 0 0 0 0 0 0 -0 0 0 0 0 0 0 0 0 0 0 0 0 0 0 0 0 0 0 -0 0 0 0 0 0 0 0 0 -0 -0 -0 0 -0 -0 -0 -0 -0
0 0 0 0 0 0 0 0 0 0 -0 0 0 0 0 0 0 0 0 0 0 0 0 0 0 0 0 0 -0 -0 0 0 0 0 0 0 0 0 0 -0 -0 0 0 0 -0 -0 0
0 0 0 0 0 0 0 0 0 0 0 0 0 0 0 0 0 0 0 0 0 0 -0 0 0 0 0 -0 -0 -0 0 0 0 0 0 0 0 0 0 0 0 0 0 0 -0 -0 -0
0 0 0 0 0 0 0 0 0 0 0 0 0 0 0 0 0 0 0 0 0 0 0 0 0 0 0 0 0 0 0 0 0 0 0 0 0 0 0 0 -0 0 0 -0 -0 0 0
0 0 0 0 0 0 0 0 0 0 0 0 0 0 0 0 0 0 0 0 0 0 -0 0 0 -0 0 0 0 0 0 0 0 0 0 0 0 0 0 0 0 0 -0 0 -0 0 0
0 0 0 0 0 0 0 0 0 0 0 0 0 0 0 0 0 0 0 0 0 0 0 0 0 0 0 0 0 0 0 0 0 0 0 0 0 0 0 0 0 0 -0 -0 -0 0 0
0 0 0 0 0 0 0 0 0 0 0 0 0 0 0 0 0 0 0 0 0 0 0 0 -0 0 0 -0 0 0 0 0 0 0 0 0 0 0 0 0 0 0 0 0 0 -0 -0
0 0 0 0 0 0 0 0 0 0 0 0 0 0 0 0 0 0 -0 -0 0 0 0 0 0 -0 0 -0 0 0 0 0 0 0 0 0 0 0 0 0 0 0 0 0 0 0 0
Wind_Speed_500mb
68 70 71 73 78 77 75 75 72 68 64 61 54 47 42 35 26 26 27 26 25 22 22 23 19 18 16 3 10 14 18 18 13 8 4 9 14 21 30 21 32 44 45 56 47 39 49
65 68 70 74 78 83 81 83 79 74 66 61 58 51 44 40 29 23 25 23 23 23 21 20 20 13 10 8 11 11 11 11 8 8 9 9 10 17 30 29 32 33 36 35 40 49 53
62 65 69 73 77 80 86 85 85 83 72 64 61 58 53 46 36 24 21 24 26 25 25 19 22 19 10 7 7 7 11 8 12 13 16 17 19 18 11 22 26 35 37 40 48 55 50
61 64 69 74 77 80 82 84 86 84 80 72 67 62 59 54 41 26 22 24 33 22 25 24 25 14 16 7 15 15 12 14 21 15 17 20 20 28 33 27 32 36 37 37 36 47 48
61 63 70 75 77 79 80 82 84 82 85 77 72 68 65 57 44 24 20 26 26 28 11 15 16 7 14 4 19 11 12 15 21 16 14 16 15 31 30 27 32 31 33 41 38 29 29
60 63 69 75 79 80 78 78 83 81 82 82 74 70 65 55 37 21 18 27 27 16 5 20 6 10 13 6 22 10 11 11 23 18 28 21 21 27 27 27 34 35 35 38 37 30 44
59 63 67 73 78 82 74 78 83 82 81 84 76 70 62 48 26 14 20 20 20 5 10 23 31 30 27 15 19 15 20 20 13 21 27 32 30 35 41 39 44 45 46 49 42 37 42
57 61 66 71 77 80 77 78 86 85 80 82 77 72 56 35 15 15 20 15 12 16 25 31 27 28 29 12 23 34 13 21 22 33 38 30 43 48 43 41 47 49 48 53 42 42 38
55 61 66 71 75 80 81 82 87 89 83 81 77 72 47 24 16 14 11 16 23 19 16 8 4 5 9 12 25 30 14 33 26 36 33 35 41 39 36 43 41 44 44 43 45 42 39
55 60 66 71 75 81 82 84 88 90 86 82 76 70 39 17 7 17 8 33 31 9 10 10 6 6 8 24 23 19 18 22 27 39 28 30 30 20 29 36 36 37 30 40 39 38 32
56 60 67 74 76 81 81 84 89 92 88 83 76 66 31 13 8 14 27 36 18 3 11 7 5 0 17 29 33 9 23 19 33 33 29 43 32 32 34 33 25 33 32 32 35 42 44
56 60 67 74 74 78 80 82 89 92 90 85 78 65 19 15 16 23 30 32 6 11 7 3 3 15 27 39 12 20 27 28 30 30 29 40 42 31 30 25 26 28 25 33 36 33 34
57 61 65 72 73 76 79 83 89 94 91 86 81 56 10 17 23 36 33 12 11 9 6 3 13 28 36 25 28 20 33 20 12 14 13 30 33 35 21 28 14 18 20 15 22 23 33
58 62 65 68 72 73 77 82 88 95 92 86 81 37 9 24 41 26 12 13 9 7 16 25 26 42 23 16 18 26 23 19 7 12 20 12 6 16 10 9 13 21 16 16 24 25 27
58 61 64 66 71 72 77 81 87 94 91 87 76 17 10 39 28 15 19 8 13 18 17 23 37 19 11 12 19 18 28 19 8 7 10 19 13 10 29 33 30 25 32 34 39 48 33
57 61 64 65 74 72 79 79 87 93 91 85 66 7 13 44 23 10 11 11 11 14 26 21 17 13 23 29 21 21 21 6 10 7 11 10 23 25 13 13 31 35 18 14 9 11 19
56 60 62 64 71 73 75 78 86 92 90 82 41 7 16 41 20 17 6 12 20 22 19 15 20 28 26 25 20 22 14 24 13 9 15 24 13 20 33 35 29 14 21 11 18 19 19
54 56 60 64 67 71 72 74 82 86 88 82 25 8 29 29 8 10 14 15 17 17 20 18 17 20 19 19 14 18 22 10 26 28 17 25 10 26 41 43 36 34 36 29 14 25 18
54 55 59 64 62 68 72 72 77 79 76 68 28 11 21 22 11 14 17 10 11 21 20 12 14 13 23 19 13 21 29 14 26 24 7 3 9 17 18 8 6 13 26 26 33 16 35
54 54 57 62 61 62 70 67 74 71 66 52 18 9 8 14 10 16 18 10 18 20 19 12 25 28 21 21 27 23 37 17 18 34 49 44 12 27 32 34 27 33 31 28 25 16 33
54 54 54 55 56 61 67 63 69 66 59 37 16 9 6 13 11 21 16 9 22 19 10 26 11 16 23 13 36 25 26 44 36 36 9 7 12 29 39 49 51 50 44 38 36 39 41
52 54 51 51 54 60 63 65 63 62 55 18 17 13 12 19 17 18 1 15 22 21 13 14 19 34 36 28 34 52 41 28 11 12 6 7 10 29 44 49 45 35 30 33 32 37 45
50 53 53 52 54 58 61 67 61 57 48 13 13 10 5 12 13 11 10 15 18 32 22 26 29 28 36 38 51 72 70 64 36 16 9 8 7 12 18 23 37 20 8 9 14 14 25
48 49 51 54 56 57 60 61 55 51 40 18 11 8 7 9 10 13 20 28 27 29 32 39 38 23 27 71 79 50 34 30 23 25 27 9 10 7 15 26 8 12 29 32 26 35 26
50 48 49 52 58 58 59 57 49 44 29 11 8 7 7 11 22 20 23 28 30 30 26 33 23 27 50 40 12 17 1 7 8 14 11 25 9 9 10 17 32 11 19 29 32 30 3
52 50 50 52 54 57 60 55 47 39 24 11 8 4 3 12 1 15 28 24 19 23 20 15 21 38 21 5 7 11 9 13 10 17 6 15 13 4 9 11 8 14 53 67 50 10 23
53 52 52 55 60 52 59 54 43 38 23 12 8 13 5 13 16 13 13 17 15 15 12 27 25 15 17 6 6 8 9 18 12 18 15 14 7 11 15 9 4 35 52 58 12 15 44
54 59 55 57 61 51 55 56 40 35 22 14 13 15 10 13 38 27 19 26 24 23 7 20 18 6 7 9 6 8 7 10 8 20 10 10 15 9 10 9 12 59 36 15 20 61 63
56 62 66 57 65 58 53 50 38 35 22 18 10 15 16 26 30 44 49 48 49 42 39 9 10 10 7 5 5 7 5 8 18 9 10 7 6 9 7 8 31 51 42 50 44 46 45
Wind_Direction_500mb
37 34 32 29 26 24 22 20 17 14 9 8 10 10 3 354 346 347 345 343 338 338 344 351 357 13 31 301 24 326 341 356 354 346 246 246 264 266 256 255 251 248 255 261 268 264 268
32 30 27 26 24 20 16 16 15 13 10 8 6 5 359 352 342 331 330 329 321 317 309 322 335 340 352 279 341 341 315 303 289 286 283 255 281 286 287 274 258 271 280 272 267 262 263
27 27 25 21 18 16 14 13 11 11 10 8 4 360 355 347 340 328 323 322 312 298 286 294 308 327 270 328 356 19 23 334 287 264 273 279 273 259 308 270 277 268 274 267 258 252 253
25 23 21 19 16 14 12 10 8 8 6 3 0 356 352 345 338 326 317 322 320 304 291 277 297 291 258 278 335 338 320 334 331 307 270 278 265 264 268 272 269 260 261 271 268 243 245
22 21 19 17 15 12 10 7 5 4 3 358 356 353 351 345 338 332 328 335 323 317 302 311 306 258 256 287 340 294 315 319 321 292 284 273 267 254 261 256 266 240 262 276 285 271 264
20 19 16 14 12 9 8 7 3 2 1 358 354 352 351 346 344 344 350 345 339 332 294 329 287 252 224 272 346 295 294 311 315 278 278 246 245 250 241 249 258 292 290 280 275 265 268
15 14 12 10 8 8 6 7 3 -0 359 359 355 353 350 349 354 10 6 358 345 279 286 279 282 277 287 291 309 311 287 292 283 272 275 278 244 247 252 257 260 273 276 274 275 283 270
9 9 7 4 4 7 8 7 3 359 358 358 355 354 353 354 14 23 29 30 6 312 298 296 276 257 252 266 299 308 265 288 281 287 293 264 248 259 266 272 270 264 260 263 273 272 269
3 4 3 2 3 5 7 5 3 360 358 356 354 354 356 3 46 30 40 8 334 319 270 314 274 242 192 267 296 305 266 297 278 288 282 271 273 305 273 262 262 250 250 263 272 282 270
358 358 358 359 3 3 4 3 2 360 357 355 354 352 359 2 19 4 338 339 334 274 274 118 165 146 208 313 289 297 296 299 282 283 288 279 286 264 266 258 252 260 245 262 268 271 269
355 354 353 354 1 359 1 1 1 359 357 356 353 351 359 360 353 342 322 332 338 298 287 89 116 241 310 311 311 135 320 302 281 288 289 267 279 280 276 270 267 275 274 265 277 274 272
353 353 352 355 358 357 357 358 358 359 356 355 352 349 356 347 348 336 335 330 323 233 251 146 280 321 314 324 316 289 312 304 276 284 270 268 273 266 275 285 276 268 261 257 265 265 263
352 352 352 355 355 357 356 355 356 358 357 355 352 349 356 354 331 329 324 319 268 262 73 34 330 322 318 312 315 332 320 309 309 310 293 297 262 224 243 264 222 233 248 263 254 237 255
350 351 351 350 352 354 356 354 354 357 357 354 353 352 359 359 341 344 343 274 275 44 312 338 324 312 300 342 323 325 317 324 288 293 298 311 274 195 191 281 302 275 262 253 279 278 282
347 349 349 348 349 353 356 354 353 355 356 353 352 356 355 343 349 352 307 297 341 358 1 321 318 298 297 318 327 312 315 290 298 222 300 308 256 299 281 286 266 261 244 255 268 266 272
344 346 348 345 348 351 355 353 352 353 355 354 351 28 351 350 355 346 303 302 314 355 336 311 305 316 318 321 320 337 301 350 306 267 293 310 291 283 303 285 259 242 267 263 225 268 262
341 343 344 342 347 350 354 353 351 351 354 355 354 319 336 355 16 6 35 323 317 333 335 325 309 303 310 318 314 306 272 306 309 294 290 284 250 283 296 276 268 214 221 236 274 256 271
338 340 340 340 345 350 351 350 350 350 353 359 359 315 343 12 352 2 5 337 315 304 302 301 283 278 273 302 281 285 263 282 296 312 282 292 296 284 282 280 269 260 270 241 245 259 247
333 336 336 337 347 345 346 349 350 352 354 353 335 300 342 13 21 5 342 312 291 304 318 320 294 273 312 297 300 264 280 313 303 290 258 284 244 291 295 178 193 235 241 250 262 240 258
329 333 333 337 342 342 342 349 347 351 354 356 337 325 9 39 65 344 350 333 335 329 316 283 288 296 300 300 274 274 284 308 310 285 280 286 233 236 261 272 280 277 257 258 266 267 260
326 331 331 334 337 340 339 345 344 351 356 10 357 29 346 322 355 339 317 300 326 348 314 303 287 281 309 282 301 269 308 306 298 296 271 252 262 256 256 259 269 270 277 272 259 255 258
323 328 330 329 333 338 338 335 343 350 355 15 356 344 318 293 305 313 165 340 322 333 302 303 283 306 310 291 281 288 298 297 268 303 308 256 278 293 285 277 268 277 278 290 273 257 262
320 324 330 329 330 334 331 333 339 347 358 19 358 347 344 292 316 296 10 330 308 319 292 262 292 301 297 292 310 294 284 275 255 258 275 274 263 296 284 311 310 276 72 313 293 279 269
314 318 322 328 326 329 326 330 335 342 353 6 350 347 312 298 302 314 308 308 304 305 285 289 300 301 286 309 306 289 252 252 245 248 208 254 278 259 284 297 268 113 13 351 318 300 332
307 311 315 319 325 324 323 321 330 337 340 359 329 353 322 291 317 289 310 313 305 303 287 291 313 313 310 312 305 313 290 210 245 222 247 216 267 296 289 307 274 52 358 337 327 304 246
297 302 305 309 316 320 314 314 325 332 325 339 293 300 300 294 40 315 308 304 305 321 318 310 334 333 346 292 320 327 340 329 312 326 43 312 323 254 298 287 303 8 352 333 314 221 354
290 293 296 299 300 310 314 307 318 325 316 311 279 293 241 270 284 295 292 318 301 315 289 303 337 334 348 335 320 323 329 342 319 315 340 317 319 287 303 281 275 8 339 318 312 322 310
288 288 286 290 301 298 305 303 311 316 306 287 274 270 242 261 286 263 267 266 276 269 277 327 329 25 308 342 335 342 301 331 286 319 345 326 330 341 311 312 341 342 328 339 296 298 293
285 282 282 280 281 290 298 295 301 307 294 271 268 272 272 262 266 283 271 260 250 258 279 292 268 296 295 308 5 301 302 307 319 317 9 360 354 309 317 308 290 311 307 314 323 320 327
Wind_Speed_850mb
68 70 71 73 78 77 75 75 72 68 64 61 54 47 42 35 26 26 27 26 25 22 22 23 19 18 16 3 10 14 18 18 13 8 4 9 14 21 30 21 32 44 45 56 47 39 49
65 68 70 74 78 83 81 83 79 74 66 61 58 51 44 40 29 23 25 23 23 23 21 20 20 13 10 8 11 11 11 11 8 8 9 9 10 17 30 29 32 33 36 35 40 49 53
62 65 69 73 77 80 86 85 85 83 72 64 61 58 53 46 36 24 21 24 26 25 25 19 22 19 10 7 7 7 11 8 12 13 16 17 19 18 11 22 26 35 37 40 48 55 50
61 64 69 74 77 80 82 84 86 84 80 72 67 62 59 54 41 26 22 24 33 22 25 24 25 14 16 7 15 15 12 14 21 15 17 20 20 28 33 27 32 36 37 37 36 47 48
61 63 70 75 77 79 80 82 84 82 85 77 72 68 65 57 44 24 20 26 26 28 11 15 16 7 14 4 19 11 12 15 21 16 14 16 15 31 30 27 32 31 33 41 38 29 29
60 63 69 75 79 80 78 78 83 81 82 82 74 70 65 55 37 21 18 27 27 16 5 20 6 10 13 6 22 10 11 11 23 18 28 21 21 27 27 27 34 35 35 38 37 30 44
59 63 67 73 78 82 74 78 83 82 81 84 76 70 62 48 26 14 20 20 20 5 10 23 31 30 27 15 19 15 20 20 13 21 27 32 30 35 41 39 44 45 46 49 42 37 42
57 61 66 71 77 80 77 78 86 85 80 82 77 72 56 35 15 15 20 15 12 16 25 31 27 28 29 12 23 34 13 21 22 33 38 30 43 48 43 41 47 49 48 53 42 42 38
55 61 66 71 75 80 81 82 87 89 83 81 77 72 47 24 16 14 11 16 23 19 16 8 4 5 9 12 25 30 14 33 26 36 33 35 41 39 36 43 41 44 44 43 45 42 39
55 60 66 71 75 81 82 84 88 90 86 82 76 70 39 17 7 17 8 33 31 9 10 10 6 6 8 24 23 19 18 22 27 39 28 30 30 20 29 36 36 37 30 40 39 38 32
56 60 67 74 76 81 81 84 89 92 88 83 76 66 31 13 8 14 27 36 18 3 11 7 5 0 17 29 33 9 23 19 33 33 29 43 32 32 34 33 25 33 32 32 35 42 44
56 60 67 74 74 78 80 82 89 92 90 85 78 65 19 15 16 23 30 32 6 11 7 3 3 15 27 39 12 20 27 28 30 30 29 40 42 31 30 25 26 28 25 33 36 33 34
57 61 65 72 73 76 79 83 89 94 91 86 81 56 10 17 23 36 33 12 11 9 6 3 13 28 36 25 28 20 33 20 12 14 13 30 33 35 21 28 14 18 20 15 22 23 33
58 62 65 68 72 73 77 82 88 95 92 86 81 37 9 24 41 26 12 13 9 7 16 25 26 42 23 16 18 26 23 19 7 12 20 12 6 16 10 9 13 21 16 16 24 25 27
58 61 64 66 71 72 77 81 87 94 91 87 76 17 10 39 28 15 19 8 13 18 17 23 37 19 11 12 19 18 28 19 8 7 10 19 13 10 29 33 30 25 32 34 39 48 33
57 61 64 65 74 72 79 79 87 93 91 85 66 7 13 44 23 10 11 11 11 14 26 21 17 13 23 29 21 21 21 6 10 7 11 10 23 25 13 13 31 35 18 14 9 11 19
56 60 62 64 71 73 75 78 86 92 90 82 41 7 16 41 20 17 6 12 20 22 19 15 20 28 26 25 20 22 14 24 13 9 15 24 13 20 33 35 29 14 21 11 18 19 19
54 56 60 64 67 71 72 74 82 86 88 82 25 8 29 29 8 10 14 15 17 17 20 18 17 20 19 19 14 18 22 10 26 28 17 25 10 26 41 43 36 34 36 29 14 25 18
54 55 59 64 62 68 72 72 77 79 76 68 28 11 21 22 11 14 17 10 11 21 20 12 14 13 23 19 13 21 29 14 26 24 7 3 9 17 18 8 6 13 26 26 33 16 35
54 54 57 62 61 62 70 67 74 71 66 52 18 9 8 14 10 16 18 10 18 20 19 12 25 28 21 21 27 23 37 17 18 34 49 44 12 27 32 34 27 33 31 28 25 16 33
54 54 54 55 56 61 67 63 69 66 59 37 16 9 6 13 11 21 16 9 22 19 10 26 11 16 23 13 36 25 26 44 36 36 9 7 12 29 39 49 51 50 44 38 36 39 41
52 54 51 51 54 60 63 65 63 62 55 18 17 13 12 19 17 18 1 15 22 21 13 14 19 34 36 28 34 52 41 28 11 12 6 7 10 29 44 49 45 35 30 33 32 37 45
50 53 53 52 54 58 61 67 61 57 48 13 13 10 5 12 13 11 10 15 18 32 22 26 29 28 36 38 51 72 70 64 36 16 9 8 7 12 18 23 37 20 8 9 14 14 25
48 49 51 54 56 57 60 61 55 51 40 18 11 8 7 9 10 13 20 28 27 29 32 39 38 23 27 71 79 50 34 30 23 25 27 9 10 7 15 26 8 12 29 32 26 35 26
50 48 49 52 58 58 59 57 49 44 29 11 8 7 7 11 22 20 23 28 30 30 26 33 23 27 50 40 12 17 1 7 8 14 11 25 9 9 10 17 32 11 19 29 32 30 3
52 50 50 52 54 57 60 55 47 39 24 11 8 4 3 12 1 15 28 24 19 23 20 15 21 38 21 5 7 11 9 13 10 17 6 15 13 4 9 11 8 14 53 67 50 10 23
53 52 52 55 60 52 59 54 43 38 23 12 8 13 5 13 16 13 13 17 15 15 12 27 25 15 17 6 6 8 9 18 12 18 15 14 7 11 15 9 4 35 52 58 12 15 44
54 59 55 57 61 51 55 56 40 35 22 14 13 15 10 13 38 27 19 26 24 23 7 20 18 6 7 9 6 8 7 10 8 20 10 10 15 9 10 9 12 59 36 15 20 61 63
56 62 66 57 65 58 53 50 38 35 22 18 10 15 16 26 30 44 49 48 49 42 39 9 10 10 7 5 5 7 5 8 18 9 10 7 6 9 7 8 31 51 42 50 44 46 45
Wind_Direction_850mb
37 34 32 29 26 24 22 20 17 14 9 8 10 10 3 354 346 347 345 343 338 338 344 351 357 13 31 301 24 326 341 356 354 346 246 246 264 266 256 255 251 248 255 261 268 264 268
32 30 27 26 24 20 16 16 15 13 10 8 6 5 359 352 342 331 330 329 321 317 309 322 335 340 352 279 341 341 315 303 289 286 283 255 281 286 287 274 258 271 280 272 267 262 263
27 27 25 21 18 16 14 13 11 11 10 8 4 360 355 347 340 328 323 322 312 298 286 294 308 327 270 328 356 19 23 334 287 264 273 279 273 259 308 270 277 268 274 267 258 252 253
25 23 21 19 16 14 12 10 8 8 6 3 0 356 352 345 338 326 317 322 320 304 291 277 297 291 258 278 335 338 320 334 331 307 270 278 265 264 268 272 269 260 261 271 268 243 245
22 21 19 17 15 12 10 7 5 4 3 358 356 353 351 345 338 332 328 335 323 317 302 311 306 258 256 287 340 294 315 319 321 292 284 273 267 254 261 256 266 240 262 276 285 271 264
20 19 16 14 12 9 8 7 3 2 1 358 354 352 351 346 344 344 350 345 339 332 294 329 287 252 224 272 346 295 294 311 315 278 278 246 245 250 241 249 258 292 290 280 275 265 268
15 14 12 10 8 8 6 7 3 -0 359 359 355 353 350 349 354 10 6 358 345 279 286 279 282 277 287 291 309 311 287 292 283 272 275 278 244 247 252 257 260 273 276 274 275 283 270
9 9 7 4 4 7 8 7 3 359 358 358 355 354 353 354 14 23 29 30 6 312 298 296 276 257 252 266 299 308 265 288 281 287 293 264 248 259 266 272 270 264 260 263 273 272 269
3 4 3 2 3 5 7 5 3 360 358 356 354 354 356 3 46 30 40 8 334 319 270 314 274 242 192 267 296 305 266 297 278 288 282 271 273 305 273 262 262 250 250 263 272 282 270
358 358 358 359 3 3 4 3 2 360 357 355 354 352 359 2 19 4 338 339 334 274 274 118 165 146 208 313 289 297 296 299 282 283 288 279 286 264 266 258 252 260 245 262 268 271 269
355 354 353 354 1 359 1 1 1 359 357 356 353 351 359 360 353 342 322 332 338 298 287 89 116 241 310 311 311 135 320 302 281 288 289 267 279 280 276 270 267 275 274 265 277 274 272
353 353 352 355 358 357 357 358 358 359 356 355 352 349 356 347 348 336 335 330 323 233 251 146 280 321 314 324 316 289 312 304 276 284 270 268 273 266 275 285 276 268 261 257 265 265 263
352 352 352 355 355 357 356 355 356 358 357 355 352 349 356 354 331 329 324 319 268 262 73 34 330 322 318 312 315 332 320 309 309 310 293 297 262 224 243 264 222 233 248 263 254 237 255
350 351 351 350 352 354 356 354 354 357 357 354 353 352 359 359 341 344 343 274 275 44 312 338 324 312 300 342 323 325 317 324 288 293 298 311 274 195 191 281 302 275 262 253 279 278 282
347 349 349 348 349 353 356 354 353 355 356 353 352 356 355 343 349 352 307 297 341 358 1 321 318 298 297 318 327 312 315 290 298 222 300 308 256 299 281 286 266 261 244 255 268 266 272
344 346 348 345 348 351 355 353 352 353 355 354 351 28 351 350 355 346 303 302 314 355 336 311 305 316 318 321 320 337 301 350 306 267 293 310 291 283 303 285 259 242 267 263 225 268 262
341 343 344 342 347 350 354 353 351 351 354 355 354 319 336 355 16 6 35 323 317 333 335 325 309 303 310 318 314 306 272 306 309 294 290 284 250 283 296 276 268 214 221 236 274 256 271
338 340 340 340 345 350 351 350 350 350 353 359 359 315 343 12 352 2 5 337 315 304 302 301 283 278 273 302 281 285 263 282 296 312 282 292 296 284 282 280 269 260 270 241 245 259 247
333 336 336 337 347 345 346 349 350 352 354 353 335 300 342 13 21 5 342 312 291 304 318 320 294 273 312 297 300 264 280 313 303 290 258 284 244 291 295 178 193 235 241 250 262 240 258
329 333 333 337 342 342 342 349 347 351 354 356 337 325 9 39 65 344 350 333 335 329 316 283 288 296 300 300 274 274 284 308 310 285 280 286 233 236 261 272 280 277 257 258 266 267 260
326 331 331 334 337 340 339 345 344 351 356 10 357 29 346 322 355 339 317 300 326 348 314 303 287 281 309 282 301 269 308 306 298 296 271 252 262 256 256 259 269 270 277 272 259 255 258
323 328 330 329 333 338 338 335 343 350 355 15 356 344 318 293 305 313 165 340 322 333 302 303 283 306 310 291 281 288 298 297 268 303 308 256 278 293 285 277 268 277 278 290 273 257 262
320 324 330 329 330 334 331 333 339 347 358 19 358 347 344 292 316 296 10 330 308 319 292 262 292 301 297 292 310 294 284 275 255 258 275 274 263 296 284 311 310 276 72 313 293 279 269
314 318 322 328 326 329 326 330 335 342 353 6 350 347 312 298 302 314 308 308 304 305 285 289 300 301 286 309 306 289 252 252 245 248 208 254 278 259 284 297 268 113 13 351 318 300 332
307 311 315 319 325 324 323 321 330 337 340 359 329 353 322 291 317 289 310 313 305 303 287 291 313 313 310 312 305 313 290 210 245 222 247 216 267 296 289 307 274 52 358 337 327 304 246
297 302 305 309 316 320 314 314 325 332 325 339 293 300 300 294 40 315 308 304 305 321 318 310 334 333 346 292 320 327 340 329 312 326 43 312 323 254 298 287 303 8 352 333 314 221 354
290 293 296 299 300 310 314 307 318 325 316 311 279 293 241 270 284 295 292 318 301 315 289 303 337 334 348 335 320 323 329 342 319 315 340 317 319 287 303 281 275 8 339 318 312 322 310
288 288 286 290 301 298 305 303 311 316 306 287 274 270 242 261 286 263 267 266 276 269 277 327 329 25 308 342 335 342 301 331 286 319 345 326 330 341 311 312 341 342 328 339 296 298 293
285 282 282 280 281 290 298 295 301 307 294 271 268 272 272 262 266 283 271 260 250 258 279 292 268 296 295 308 5 301 302 307 319 317 9 360 354 309 317 308 290 311 307 314 323 320 327